Tracking 31027 objects as of 19-Jul-2025
HD Live streaming from Space Station
objects crossing your sky now

PSLV R/B

Track PSLV R/B now!
10-day predictions


NORAD ID: 43287
Int'l Code: 2018-035B
Perigee: 275.0 km
Apogee: 17,529.4 km
Inclination: 19.1 °
Period: 313.1 minutes
Semi major axis: 15273 km
RCS: Unknown
Launch date: April 11, 2018
Source: India (IND)
Launch site: SRIHARIKOTA (SRI)

Note: This is a ROCKET BODY
Your satellite tracking list
COSMOS 1275 DEB
Track 1 satellite(s)




NASA's NSSDC Master Catalog

Two Line Element Set (TLE):
1 43287U 18035B   25199.73335915  .00004502  00000-0  55557-3 0  9994
2 43287  19.0841  41.0854 5648595 327.6573   7.7046  4.59947375110735
Source of the keplerian elements: AFSPC